www.pogodaiklimat.ru

Погода и климат >> Архив погоды >> Корея >> Пэннёндо


ПОГОДА на Пэннёндо

  • Прогноз погоды на Пэннёндо
  • Монитор погоды на Пэннёндо

АРХИВ ПОГОДЫ на Пэннёндо

Время (UTC), дата Ветер
(напр.,м/с)
 
Видим.   Явления Облачность Т
(С)
Тd
(С)
f
(%)
Тe
(С)
Тes
(С)
Комфортность P
(гПа)
Po
(гПа)
Тmin
(С)
Tmax
(С)
R
(мм)
R24
(мм)
S
(см)
21 18.06 ЮЗ 4 9000 м в посл. час дождь 10/10 200 м
[Sc As op]
+18.6 +18.4 99 +20 +20 1006.3 1002.1
00 19.06 З 7 13 км в посл. час дождь 9/9 200 м
[Sc]
+19.5 +18.6 95 +21 +22 комфорт 1006.3 1002.1 +17.1 6
03 19.06 Ю 3 8000 м дымка 10// 200 м
[St]
+19.2 +18.5 96 +21 +30 комфорт 1006.1 1001.9
06 19.06 ЮЗ 3 16 км 10/10 600 м
[Sc]
+20.3 +18.7 91 +24 +31 комфорт 1005.6 1001.4
09 19.06 7000 м дымка н/о +19.5 +18.6 95 +23 +23 комфорт 1005.3 1001.2
12 19.06 Ю 1 3400 м дымка 8/8 200 м
[Sc]
+18.7 +18.5 99 +21 +21 комфорт 1005.7 1001.5 +20.8 0.0
15 19.06 Ю 1 300 м туман 10// 300 м
[]
+17.9 +17.8 99 +19 +19 1006.5 1002.3
18 19.06 Ю 1 600 м туман ?/? +17.9 +17.8 99 +19 +19 1006.0 1001.8
21 19.06 ЮВ 1 4500 м в посл. час дождь 10// 100 м
[St]
+17.7 +17.6 99 +19 +19 1006.1 1001.9
00 20.06 Ю 4 12 км 8/8 200 м
[St]
+18.9 +18.8 99 +20 +22 1006.7 1002.5 +17.2 0.0
03 20.06 Ю 2 10 км 9// 200 м
[St]
+19.1 +18.6 97 +22 +33 комфорт 1006.3 1002.1
06 20.06 Ю 3 18 км 10/10 300 м
[St]
+20.1 +18.5 91 +24 +24 комфорт 1005.6 1001.4
09 20.06 Ю 2 19 км 9// 300 м
[Sc]
+19.5 +18.6 95 +23 +24 комфорт 1004.7 1000.6
12 20.06 Ю 5 8000 м дымка 9/9 300 м
[Sc]
+18.6 +18.2 98 +19 +19 1006.1 1001.9 +21.0 0.0
15 20.06 Ю 1 4200 м дымка 9// 300 м
[Sc]
+18.2 +18.1 99 +20 +20 1006.3 1002.1
18 20.06 Ю 1 н/о дымка 9/9 200 м
[Sc]
+18.6 +18.5 99 +21 +21 комфорт 1005.3 1001.1
21 20.06 Ю 1 4700 м дымка 9// 300 м
[Sc]
+18.1 +18.0 99 +19 +20 1005.4 1001.2
00 21.06 Ю 3 7000 м дымка 9/9 200 м
[Sc]
+19.8 +19.3 97 +23 +24 комфорт 1005.5 1001.4 +18.1 0.0
03 21.06 СЗ 5 13 км 9// 300 м
[Sc]
+20.3 +19.1 93 +24 +25 комфорт 1005.5 1001.3
06 21.06 З 3 16 км 8/8 300 м
[Sc]
+20.4 +19.0 92 +25 +26 комфорт 1004.9 1000.7
09 21.06 2900 м дымка н/о +17.3 +17.1 99 +17 +18 1004.6 1000.4
12 21.06 СЗ 7 200 м туман ?/? +15.7 +15.6 99 +14 +14 1005.2 1001.0 +22.0
15 21.06 СЗ 3 200 м туман 10// 200 м
[]
+16.2 +16.1 99 +16 +16 1006.3 1002.1
18 21.06 З 1 4800 м дымка 10/10 300 м
[St]
+16.9 +16.8 99 +18 +18 1005.9 1001.7
21 21.06 3700 м дымка н/о +15.7 +15.6 99 +16 +16 1006.0 1001.8
00 22.06 В 3 35 км ясно +20.2 +16.4 79 +23 +31 комфорт 1006.5 1002.3 +14.9
03 22.06 СЗ 3 28 км ясно +20.4 +16.2 77 +24 +41 комфорт 1006.6 1002.4
06 22.06 СЗ 4 35 км ясно +21.0 +15.5 71 +25 +35 комфорт 1005.6 1001.4
09 22.06 СЗ 7 30 км ясно +20.0 +14.1 69 +22 +23 комфорт 1005.0 1000.8
12 22.06 СЗ 3 20 км ясно +16.5 +14.1 86 +16 +16 1005.9 1001.7 +23.2
15 22.06 СЗ 2 27 км ясно +16.8 +13.7 82 +17 +17 1006.3 1002.1
18 22.06 С 4 35 км 6/0
[Ci fib]
+18.1 +14.7 81 +18 +18 1006.3 1002.1
21 22.06 В 1 30 км 3/3 1000 м
[Sc]
+18.6 +14.6 78 +20 +21 1007.0 1002.8
00 23.06 В 2 40 км ясно +23.2 +13.3 54 +26 +36 жарко 1007.9 1003.8 +16.9
03 23.06 Ю 3 45 км ясно +24.3 +9.8 40 +25 +42 комфорт 1008.1 1004.0
06 23.06 В 1 45 км ясно +25.5 +11.6 42 +27 +45 жарко 1007.8 1003.7
09 23.06 СЗ 3 45 км ясно +23.8 +11.4 46 +25 +28 комфорт 1007.4 1003.3
12 23.06 СЗ 3 45 км ясно +19.1 +14.9 77 +21 +21 комфорт 1008.1 1003.9 +26.2
15 23.06 СЗ 1 18 км ясно +18.1 +17.4 96 +19 +19 1008.4 1004.2
18 23.06 З 2 2900 м дымка ясно +17.9 +17.8 99 +18 +18 1008.8 1004.6
21 23.06 200 м туман н/о +18.5 +18.4 99 +20 +21 1009.8 1005.6
00 24.06 ЮВ 2 35 км ясно +22.0 +18.7 82 +27 +37 душно 1011.1 1006.9 +17.2
03 24.06 СЗ 1 40 км ясно +25.2 +16.6 59 +29 +53 опасность
солнечного
удара
1010.9 1006.8
06 24.06 З 4 45 км ясно +26.1 +12.8 44 +28 +38 жарко 1010.7 1006.6
09 24.06 ЮЗ 4 40 км ясно +24.3 +15.2 57 +27 +29 жарко 1010.4 1006.3
12 24.06 ЮЗ 4 40 км 3/0
[Ci fib]
+20.7 +16.9 79 +24 +24 комфорт 1011.6 1007.4 +27.1
15 24.06 2200 м дымка н/о +16.8 +16.3 97 +17 +17 1012.8 1008.6
18 24.06 ЮВ 1 1900 м дымка 10/10 100 м
[St]
+17.1 +17.0 99 +18 +18 1013.2 1009.0
21 24.06 В 2 200 м туман 10// 200 м
[]
+16.5 +16.4 99 +17 +17 1013.8 1009.5
00 25.06 В 6 14 км 3/3 300 м
[Sc]
+19.8 +19.3 97 +23 +25 комфорт 1014.2 1010.0 +16.0
03 25.06 Ю 4 24 км ясно +22.5 +18.8 80 +28 +42 душно 1013.7 1009.6
06 25.06 Ю 4 25 км ясно +22.0 +18.7 82 +27 +38 душно 1012.9 1008.7
09 25.06 ЮВ 2 28 км 5/0
[Ci fib]
+20.1 +18.4 90 +24 +27 комфорт 1012.1 1007.9
12 25.06 В 2 19 км 8/0
[Ci fib]
+17.0 +16.5 97 +17 +17 1012.5 1008.3 +23.0
15 25.06 ЮВ 1 5000 м в посл. час туман 8/4 300 м
[St Ci fib]
+17.2 +17.1 99 +18 +18 1011.8 1007.6

 

Местоположение метеостанции Пэннёндо (Корея): широта 37.97 долгота 124.63 высота над уровнем моря 158 м.

В архиве по умолчанию представлена погода на Пэннёндо за последнюю неделю. Архивные данные за месяц целиком и за предыдущие месяцы, начиная с января 2011 года, Вы можете получить, выбрав интересующий диапазон дат из раскрывающегося списка и нажав кнопку "Ввод!".


*Определитесь, кто Вы:
робот инопланетянин человек

Внимание! Время в таблицах - всемирное. Для получения местного времени необходимо прибавить поправку, которая равна 9 ч.

Смотрите также архив погоды в соседних городах и на ближайших метеорологических станциях:

Погода в Рёнджёне (КНДР) (30 км)
Погода в Хэджу (КНДР) (94 км)
Погода в Нампхо (КНДР) (106 км)
Погода в Саривоне (КНДР) (116 км)
Погода в Пхеньяне (КНДР) (155 км)
Погода в Кэсоне (КНДР) (169 км)
Погода в Сингяе (КНДР) (176 км)
Погода в Чэнгшантоу (Шаньдун, Китай) (183 км)
Погода в Инчхоне (Корея) (185 км)
Погода в Мунсане (Корея) (187 км)

Пояснения к столбцам:

Ветер - указаны скорость ветра в м/с - средняя за 10 мин, порывы в срок и между сроками (в фигурных скобках) и направление, откуда дует ветер: С - северный, СВ - северо-восточный, В - восточный, ЮВ - юго-восточный, Ю - южный, ЮЗ - юго-западный, З - западный, СЗ - северо-западный.
Видимость - горизонтальная дальность видимости в метрах или километрах. При видимости от 1 до 10 км при отсутствии осадков обычно наблюдается дымка, при ухудшении видимости до 1 км и менее - туман. В сухую погоду видимость может ухудшаться дымом, пылью или мглою.
Явления - указаны атмосферные явления, наблюдавшиеся в срок или в последний час перед сроком; фигурными скобками обозначены явления, наблюдавшиеся между сроками (за 1-3 часа до срока); квадратными скобками обозначены град или гололедные отложения с указанием их диаметра в мм.
Облачность - указаны через наклонную черту общая и нижняя облачность в баллах и высота нижней границы облаков в метрах; квадратными скобками обозначены формы облаков: Ci - перистые, Cs - перисто-слоистые, Cc - перисто-кучевые, Ac - высококучевые, As - высокослоистые, Sc - слоисто-кучевые, Ns - слоисто-дождевые, Cu - кучевые, Cb - кучево-дождевые. Подробнее классификацию облаков см. в Атласе облаков (PDF).
T - Температура воздуха - температура, измеренная на высоте 2 м над землей.
Td - Температура точки росы - температура, при понижении до которой содержащийся в воздухе водяной пар достигнет насыщения.
f - Относительная влажность воздуха - влажноcть воздуха, измеренная на высоте 2 м над землей.
Te - Эффективная температура - температура, которую ощущает одетый по сезону человек в тени. Характеристика душности погоды. При расчете учитывается влияние влажности воздуха и скорости ветра на теплоощущения человека.
Tes - Эффективная температура на солнце - температура, которую ощущает человек, с поправкой на солнечный нагрев. Характеристика знойности погоды. Зависит от высоты солнца над горизонтом, облачности и скорости ветра. Ночью, в пасмурную погоду, а также при ветре 12 м/с и более поправка равна нулю.
P - Атмосферное давление - приведенное к уровню моря атмосферное давление.
Po - Атмосферное давление - измеренное на уровне метеостанции атмосферное давление.
Tmin - Минимальная температура - минимум температуры воздуха на высоте 2 м над землей.
Tmax - Максимальная температура - максимум температуры воздуха на высоте 2 м над землей.
R - Количество осадков - Количество выпавших осадков за период времени, мм. При наведении курсора мыши на число - период времени, за который выпало указанное количество осадков.
R24 - Количество осадков - Количество выпавших осадков за 24 часа, мм.
S - Снежный покров - Высота снежного покрова, см. При наведении курсора мыши на число - состояние снежного покрова и степень покрытия местности в баллах.